Regional Weather Roundup
Issued by NWS

Home | Current Version | Previous Version | Text Only | Print | Product List | Glossary Off
Versions: 1 2 3 4 5 6 7 8 9 10 11 12 13 14 15 16 17 18 19 20 21 22 23 24 25 26 27 28 29 30 31 32 33 34 35 36 37 38 39 40 41 42 43 44 45 46 47 48 49 50

000
ASUS43 KDMX 030403
RWRIA

WEATHER ROUNDUP FOR IOWA
NATIONAL WEATHER SERVICE DES MOINES IA
1100 PM CDT MON MAY 02 2016

NOTE: "FAIR" INDICATES FEW OR NO CLOUDS BELOW 12,000 FEET WITH NO
SIGNIFICANT WEATHER AND/OR OBSTRUCTIONS TO VISIBILITY.

* - THESE STATIONS ARE NOT NWS STATIONS...THUS NOT UNDER NWS
QUALITY CONTROL.  THEY ALSO DO NOT REPORT WEATHER SUCH
AS PRECIPITATION OR FOG.

IAZ001>003-012>014-020>022-031>034-043>046-030500-
   NORTHWEST IOWA

CITY           SKY/WX    TMP DP  RH WIND       PRES   REMARKS
CARROLL *      PTCLDY    50  45  81 CALM      30.05R
CHEROKEE *     CLEAR     45  43  93 CALM      30.04S
DENISON *      CLEAR     46  41  81 CALM      30.03S
LE MARS *      PTCLDY    48  43  81 CALM      30.05S
ORANGE CITY *  CLEAR     52  41  66 CALM      30.05R
SHELDON *      CLEAR     46  41  81 CALM      30.03S
SIOUX CITY     CLOUDY    55  45  68 S5        30.04R
SPENCER        CLEAR     47  42  83 S5        30.04R
STORM LAKE *   CLEAR     54  36  50 SW5       30.05S
$$

IAZ055>058-069>071-079>083-090>094-030500-
   SOUTHWEST IOWA

CITY           SKY/WX    TMP DP  RH WIND       PRES   REMARKS
ATLANTIC *     CLEAR     46  45  93 CALM      30.05S
AUDUBON *      CLEAR     43  39  87 CALM      30.06S
CLARINDA *       N/A    N/A N/A N/A MISG        N/A
COUNCIL BLFS * MOCLDY    54  39  58 S7        30.05S
CRESTON *      CLEAR     50  41  71 SE5       30.07S
HARLAN  *      CLEAR     46  43  87 CALM      30.08S
LAMONI         CLEAR     49  43  80 CALM      30.05F
SHENANDOAH *   CLEAR     50  46  87 CALM      30.06S
$$

IAZ047>049-059>061-072>074-084-030500-
   CENTRAL IOWA

CITY           SKY/WX    TMP DP  RH WIND       PRES   REMARKS
AMES           CLEAR     47  43  86 CALM      30.05S
ANKENY *       CLEAR     43  43 100 CALM      30.05S
BOONE *        CLEAR     50  45  81 S5        30.05R
CHARITON *     CLEAR     50  45  81 CALM      30.06S
DES MOINES     CLEAR     53  42  66 S5        30.05F
GRINNELL*      CLEAR     48  41  76 S5        30.06S
KNOXVILLE *    CLEAR     52  43  71 S3        30.04F
MARSHALLTOWN   PTCLDY    46  42  86 S3        30.05S
NEWTON *       CLEAR     50  46  87 CALM      30.05F
PELLA *        CLEAR     47  42  83 CALM      30.07S
$$

IAZ004>006-015-016-023>025-035-036-030500-
   NORTH CENTRAL IOWA

CITY           SKY/WX    TMP DP  RH WIND       PRES   REMARKS
ALGONA *       CLEAR     50  45  81 S3        30.05S
CLARION *      CLEAR     48  45  87 SE6       30.05S
ESTHERVILLE    CLEAR     48  40  73 SW5       30.04R
FORT DODGE *   CLEAR     43  36  75 CALM      30.05S
MASON CITY     CLEAR     47  42  83 S5        30.05S
FOREST CITY *    N/A     45  43  93 CALM      30.04S
WEBSTER CITY * CLEAR     48  43  81 S8        30.03S
IOWA FALLS *     N/A     48  43  81 S8        30.06S
$$

IAZ007>011-017>019-026>030-037>042-050>054-066-030500-
   NORTHEAST IOWA

CITY           SKY/WX    TMP DP  RH WIND       PRES   REMARKS
CEDAR RAPIDS   CLOUDY    47  43  86 W8        30.03F
CHARLES CITY * CLEAR     50  41  71 W5        30.04F
CLINTON *      PTCLDY    48  44  86 NW7       30.03S
DECORAH *      MOCLDY    52  39  62 CALM      30.02F
DUBUQUE        CLEAR     48  40  73 CALM      30.03S
MONTICELLO *   MOCLDY    46  45  93 CALM      30.03S
OELWEIN *      CLEAR     48  41  76 W8        30.05S
WATERLOO       CLEAR     46  40  79 CALM      30.04S
$$

IAZ064-065-067-068-078-030500-
   EAST CENTRAL IOWA

CITY           SKY/WX    TMP DP  RH WIND       PRES   REMARKS
DAVENPORT      MOCLDY    49  44  83 W6        30.03S
IOWA CITY      MOCLDY    46  43  89 CALM      30.05S
MT. PLEASANT * CLOUDY    54  48  82 W5        30.04F
MUSCATINE *    CLOUDY    52  45  76 NW5       30.04S
QUAD CITIES    PTCLDY    51  45  79 W3        30.02S
$$

IAZ062-063-075>077-085>089-095>099-030500-
   SOUTHEAST IOWA

CITY           SKY/WX    TMP DP  RH WIND       PRES   REMARKS
BURLINGTON     CLOUDY    51  48  89 NW5       30.03S
FAIRFIELD *    CLOUDY    50  45  81 W6        30.05S
FORT MADISON * CLOUDY    52  48  87 CALM      30.05S
KEOKUK *       CLOUDY    52  48  87 CALM      30.03F
OSKALOOSA *      N/A     46  43  89 W6        30.05F
OTTUMWA        CLEAR     44  43  96 W5        30.05S
WASHINGTON *   CLOUDY    50  50 100 W7        30.06S
$$

ABBREVIATIONS USED IN REMARKS
   TC - TEMPERATURES IN CELSIUS
  WCI - WIND CHILL INDEX
   HX - HEAT INDEX
  VSB - VISIBILITY
$$




USA.gov is the U.S. government's official web portal to all federal, state and local government web resources and services.